Torna al catalogo

COSMOS 2251 DEB

AttivoLEO
NORAD 33762·DEBRIS·🇷🇺 Russia

Lanciato Jun 16, 1993 da Plesetsk Cosmodrome

Loading…

Prossimi Passaggi (prossime 24 ore)

TLE

AggiornatoSource: Space-Track

Epoca: Sep 14, 2026, 05:05 UTC

1 33762U 93036K   26257.21214498  .00000076  00000-0  36640-4 0  9991
2 33762  74.0424 166.3747 0015070 169.2326 343.5345 14.33732755919950

Traccia COSMOS 2251 DEB in tempo reale con AllMySat

Download on the App Store